865  
ASUS41 KAKQ 271616  
RWRAKQ  
 
REGIONAL WEATHER ROUNDUP  
NATIONAL WEATHER SERVICE WAKEFIELD VA  
1200 PM EDT THU APR 27 2017  
 
NOTE: "FAIR" INDICATES FEW OR NO CLOUDS BELOW 12,000 FEET WITH NO  
SIGNIFICANT WEATHER AND/OR S TO VISIBILITY
. * = DENOTES  
STATION MAY NOT REPORT PRECIPITATION (E.G., RAIN,SNOW,ETC.),
 
THUNDER OR FOG.  
 
VAZ042-051-052>054-056-271700-  
NORTHERN VIRGINIA  
 
CITY SKY/WX TMP DP RH WIND PRES REMARKS
 
WASH NATIONAL CLOUDY 75 66 73 S7 29.86F  
DULLES CLOUDY 70 62 76 S7 29.85F  
FORT BELVOIR CLOUDY 75 64 68 S6 29.85F  
QUANTICO CLOUDY 72 65 78 S5 29.85  
FREDERICKSBRG* CLOUDY 79 65 62 S6 29.84F  
STAFFORD* CLOUDY 76 64 67 S7 29.88F  
WARRENTON CLOUDY 77 63 61 S5 29.84F  
CULPEPER* CLOUDY 75 66 74 S6 29.84F  
MANASSAS* N/A 72 65 78 CALM 29.85F  
LEESBURG* CLOUDY 68 64 88 SW5 29.87S  
WINCHESTER MOSUNNY 72 63 73 SE7 29.81F  
FRONT ROYAL* MOSUNNY 72 64 78 E7 29.79F  
LURAY* MOSUNNY 79 61 53 SW13 29.79F  

 
 
VAZ048-049-060>072-079>083-271700-  
CENTRAL AND SOUTH CENTRAL VIRGINIA  
 
CITY SKY/WX TMP DP RH WIND PRES REMARKS
 
RICHMOND CLOUDY 79 64 60 S15 29.87F  
CHESTERFIELD* FAIR N/A N/A N/A S9 29.88F  
PETERSBURG* SUNNY 78 61 56 SW7 29.88F  
HANOVER CLOUDY 80 61 52 S13 29.87F  
TAPPAHANNOCK* CLOUDY 80 61 52 S13G18 29.89S  
QUINTON* FAIR 78 64 62 SW6 29.88S  
CHARLOTTSVILLE MOSUNNY 78 64 61 S12G18 29.83F  
GORDONSVILLE* CLOUDY 76 64 65 SW8G17 29.83F  
ORANGE* CLOUDY 75 63 64 SW8 29.84F  
LOUISA* MOSUNNY 81 66 61 S8 29.84F  
BUMPASS* FAIR 78 65 64 S7G16 29.85F  
FARMVILLE* CLOUDY 78 63 60 S12 29.85F  
CREWE* FAIR 79 65 61 SW6 29.86F  
FORT PICKETT* FAIR 77 60 55 S9 29.87F  
CHASE CITY* FAIR 77 61 57 S6 29.87F  
CLARKSVILLE* FAIR 75 63 64 S6 29.88F  
SOUTH HILL* CLOUDY 76 66 69 S8 29.94F  
LAWRENCEVILLE* FAIR 77 64 63 S7 29.88F  
EMPORIA* SUNNY N/A N/A N/A S6 29.91F  

 
 
VAZ088>098-271700-  
SOUTHEAST VIRGINIA  
 
CITY SKY/WX TMP DP RH WIND PRES REMARKS
 
NORFOLK SUNNY 83 60 45 S17 29.90F  
VIRGINIA BEACH MOSUNNY 80 60 50 SW12G18 29.90F  
NORFOLK NAVAL MOSUNNY 81 57 43 SW15G21 29.91F  
WEST POINT* SUNNY 79 61 55 S10 29.90S  
SALUDA* FAIR 78 66 65 S8 29.89S  
NEWPORT NEWS SUNNY 79 59 50 SW16G22 29.90F  
LANGLEY AFB SUNNY 79 60 52 SW14 29.90S  
FORT EUSTIS SUNNY 79 61 53 S9 29.88F  
WILLIAMSBURG* SUNNY 81 61 50 SW6 29.90F  
HR EXEC AP* FAIR 81 61 50 SW7G21 29.88F  
FRANKLIN* SUNNY 78 58 49 SW10 29.91F  
US460-WAKEFLD SUNNY 79 56 45 SW13 29.89F  

 
 
VAZ020-022-025-037-045-271700-  
WEST CENTRAL AND SOUTHWEST VIRGINIA  
 
CITY SKY/WX TMP DP RH WIND PRES REMARKS
 
STAUNTON* MOSUNNY 74 57 54 SW13 29.84S  
WAYNESBORO* CLOUDY 75 57 53 S7 29.85S  
HOT SPRINGS VA MOSUNNY 64 45 48 S9 29.91F  
LYNCHBURG MOSUNNY 76 58 53 SW14 29.85F  
DANVILLE CLOUDY 77 58 51 SW12G22 29.86F  
SOUTH BOSTON* FAIR 78 60 53 S6G16 29.87F  
MARTINSVILLE MOSUNNY 74 57 55 S6 29.89R  
ROANOKE CLOUDY 74 58 57 SW3 29.85F  
BLACKSBURG CLOUDY 72 53 50 S9G16 29.90S  
DUBLIN* MOSUNNY 73 49 41 S13G22 29.87R  
MARION* MOSUNNY 74 54 49 CALM 29.86F  
HILLSVILLE* CLOUDY 69 57 65 S10G22 29.87F  
RICHLANDS* FAIR 71 51 49 S7 29.82R  
WISE* LGT RAIN 61 55 82 CALM 29.82F  
ABINGDON* CLOUDY 75 53 45 S5 29.81S  

 
 
MDZ021>025-VAZ099-100-271700-  
SOUTHERN MARYLAND AND THE DELMARVA PENINSULA  
 
CITY SKY/WX TMP DP RH WIND PRES REMARKS
 
PATUXENT RIVER PTSUNNY 80 68 66 SW12 29.86F  
BAY BRIDGE APT SUNNY 66 63 88 W6 29.87F HAZE  
LEONARDTOWN SUNNY 77 63 61 SW12G18 29.88S  
DOVER PTSUNNY 65 65 100 E9 29.87F  
GEORGETOWN MOSUNNY 77 66 68 SW7 29.88S  
EASTON MOSUNNY 79 64 61 SW6 29.90F  
CAMBRIDGE SUNNY 77 64 65 S7G14 29.87F  
SALISBURY PTSUNNY 79 67 66 S10 29.88S  
OCEAN CITY MOSUNNY 65 59 81 S7 29.90S  
WALLOPS ISLAND PTSUNNY 73 65 75 S12 29.90S  
ACCOMACK* SUNNY 78 61 56 SW10G18 29.90S  

 
 
NCZ012>017-030>032-271700-  
NORTH CENTRAL AND EASTERN NORTH CAROLINA  
 
CITY SKY/WX TMP DP RH WIND PRES REMARKS
 
ROANOKE RAPIDS FAIR 77 64 65 S8 29.90F  
RALEIGH PTSUNNY 78 61 55 SW14G22 29.90F  
ELIZABETH CITY SUNNY 79 66 64 S16 29.94S  
AHOSKIE* N/A 76 59 55 S6 29.92F  
EDENTON* SUNNY 80 63 55 SW12 29.95S  
CURRITUCK* SUNNY 79 62 56 S14G21 29.94S  
KILL DEVIL HLS PTSUNNY 80 63 56 SW10 29.94F  
MANTEO PTSUNNY 74 67 77 S13 29.96S  
CAPE HATTERAS SUNNY 77 65 66 SW6 29.98S HAZE  
TARBORO* NOT AVBL  
GOLDSBORO SUNNY 79 62 56 SW15 29.90F  
WASHINGTON SUNNY 79 62 55 S12 29.94F  
GREENVILLE SUNNY 79 63 57 SW12G17 29.95F  
NEW BERN MOSUNNY 81 64 56 W8 29.96F  
WILMINGTON SUNNY 81 56 42 SW10 29.94F  

 
 
VAZ048-271700-  
ELSEWHERE  
 
CITY SKY/WX TMP DP RH WIND PRES REMARKS
 
HARRISBURG PA CLOUDY 71 63 75 SE7 29.84F  
BALTIMORE CLOUDY 72 64 76 E6 29.85F  
ANNAPOLIS SUNNY 66 63 90 SE10 29.86F FOG  
ANDREWS AFB CLOUDY 77 64 64 SW9 29.85F  
PHILADELPHIA PTSUNNY 74 61 63 CALM 29.88F  
HENDERSON NC MOSUNNY 74 60 62 SW10 29.89F  
GREENSBORO CLOUDY 75 59 57 SW14 29.88S  
ROCKY MOUNT SUNNY 77 65 66 S9 29.91F  

 
 
VAZ100-271700-  
MARINE  
 
STATION/POSITION TIME TEMP WIND PRES WAVE SWELL
 
AIR SEA DIR/SP/G HT/PER HT/PER  
(UTC) (F) (DEG/KT/KT) (MB) (FT/S) (FT/S)  
CAPE MAY NJ 1548 59 56 110/ 12/ 14 1012.2F  
LEWES DE 1542 61 56 140/ 7/ 10 1012.2R  
15NM E FENWICK I 1550 55 52 160/ 8/ 10 1013.2R 4/11 3/11  
OCEAN-CITY-INLET 1512 58 54 190/ 5/ 8 1012.9  
WACHAPREAGUE VA 1542 70 63 190/ 12/ 14 1012.2S  
THOMAS POINT MD 1600 63 58 190/ 2/ 3 N/A  
GOOSES REEF MD 1600 63 54 150/ 10/ 12 1012.1 1/ 3  
COVE POINT MD 1542 61 160/ 13/ 14 1012.1F  
SOLOMONS ISLAND 1542 66 60 90/ 5/ 6 N/A  
BISHOPS HEAD MD 1542 67 64 180/ 7/ 9 1012.3F  
PINEY POINT MD 1548 230/ 8/ 8 N/A  
POTOMAC MD 1600 69 61 100/ 2/ 2 1010.7 1  
CAMBRIDGE MD 1542 76 63 N/A  
LEWISETTA VA 1542 76 63 230/ 9/ 13 1011.2F  
RAPPAHANNOCK LGT 1548 170/ 13/ 13 1013.0S  
STINGRAY PT 1600 70 63 220/ 8/ 10 1012.5  
YORK RVR RNG VA 1542 71 220/ 11/ 12 1011.8F  
YORKTOWN VA 1542 76 63 210/ 11/ 18 1011.9F  
JAMESTOWN VA 1600 76 68 210/ 8/ 12 N/A 0  
DOMINION TERM VA 1542 72 220/ 10/ 12 1012.8F  
KIPTOPEKE VA 1548 61 240/ 6/ 7 N/A  
CHES BAY BRIDGE 1542 75 62 240/ 15/ 16 1012.5F  
CAPE HENRY VA 1542 78 210/ 10/ 14 N/A  
WILLOUBY STN VA 1548 230/ 15/ 16 1013.6F  
S CRANEY ISL VA 1542 77 210/ 11/ 16 1012.6F  
CAPE HENRY BUOY 1542 61 N/A 3/10 2/11  
1ST LANDING BUOY 1600 72 63 1012.7 1/ 3  
CAPE CHARLES BUO 1551 59 N/A 3/11 2/11  
64NM E OF VA BCH 1550 60 56 200/ 10/ 12 1014.8R 4/10 5/10  
DUCK PIER NC 1542 75 58 220/ 13/ 16 1013.9S  
44100 DUCK FRF 1535 61 N/A 4/ 9 2/12  
44056 DUCK FRF 1530 62 N/A 3/11 2/11  
OREGON INLET NC 1548 180/ 11/ 12 N/A  
HATTERAS NC 1542 76 69 200/ 3/ 5 1014.8F  
DIAMOND SHLS NC 1550 77 77 220/ 14/ 17 1014.9S 6/ 9 3/ 9  
CAPE LOOKOUT NC 1600 74 230/ 9/ 12 1014.7F  

 
 
 
CLICK HERE TO GO TO PREVIOUS BULLETINS.

The Nexlab VA Page
The Nexlab NC Page
The Nexlab MD Page Main Text Page